Weather History for Dothan, AL

Change the Weather History Date:

Friday, November 2, 2012

  Actual Average Record
Temperature  
Mean Temperature 62 °F 62 °F  
Max Temperature 80 °F 75 °F 86 °F (1950)
Min Temperature 43 °F 50 °F 30 °F (1954)
Degree Days  
Heating Degree Days 3 5  
Month to date heating degree days 10 9  
Since 1 July heating degree days 63 68  
Cooling Degree Days 0 2  
Month to date cooling degree days 4  
Year to date cooling degree days 2367  
Growing Degree Days 12 (Base 50)    
Moisture  
Dew Point 50 °F    
Average Humidity 69    
Maximum Humidity 93    
Minimum Humidity 39    
Precipitation  
Precipitation 0.00 in 0.08 in 2.14 in (1951)
Month to date precipitation 0.00 0.18  
Year to date precipitation 35.87 45.57  
Sea Level Pressure  
Sea Level Pressure 30.06 in    
Wind  
Wind Speed 4 mph (WSW)    
Max Wind Speed 15 mph    
Max Gust Speed 20 mph    
Visibility 10 miles    
Events      
T = Trace of Precipitation, MM = Missing Value Source: NWS Daily Summary

Daily Weather History Graph

Daily Weather History Graph

Search for Another Location

Airport:

Trip Planner

Search our weather history database for the weather conditions in past years. The results will help you decide how hot, cold, wet, or windy it might be!

Date:

Astronomy

Nov. 02, 2012 Rise Set
Actual Time 6:58 AM CDT 5:51 PM CDT
Civil Twilight 6:33 AM CDT 6:16 PM CDT
Nautical Twilight 6:04 AM CDT 6:45 PM CDT
Astronomical Twilight 5:36 AM CDT 7:13 PM CDT
Moon 8:45 PM CDT (11/2) 10:10 AM CDT (11/2)
Length of Visible Light 11h 43m
Length of Day
10h 52m
Waning Gibbous, 87% of the Moon is Illuminated
Nov 2
Waning Gibbous
Nov 6
Last Quarter
Nov 13
New
Nov 20
First Quarter
Nov 28
Full

Hourly Weather History & Observations

Time (CDT) Temp. Windchill Dew Point Humidity Pressure Visibility Wind Dir Wind Speed Gust Speed Precip Events Conditions
12:53 AM 48.0 °F - 42.1 °F 80% 30.05 in 10.0 mi Calm Calm - N/A   Clear
1:53 AM 46.9 °F - 42.1 °F 83% 30.06 in 10.0 mi Calm Calm - N/A   Clear
2:53 AM 45.0 °F - 42.1 °F 90% 30.05 in 10.0 mi Calm Calm - N/A   Clear
3:53 AM 46.9 °F - 42.1 °F 83% 30.05 in 10.0 mi Calm Calm - N/A   Clear
4:53 AM 44.1 °F - 41.0 °F 89% 30.06 in 10.0 mi Calm Calm - N/A   Clear
5:53 AM 44.1 °F - 41.0 °F 89% 30.08 in 10.0 mi Calm Calm - N/A   Clear
6:53 AM 45.0 °F 42.6 °F 42.1 °F 90% 30.09 in 10.0 mi WSW 4.6 mph - N/A   Clear
7:53 AM 51.1 °F - 46.0 °F 83% 30.09 in 10.0 mi Calm Calm - N/A   Clear
8:53 AM 60.1 °F - 46.0 °F 60% 30.10 in 10.0 mi SW 6.9 mph - N/A   Clear
9:53 AM 66.0 °F - 48.0 °F 52% 30.11 in 10.0 mi WSW 10.4 mph - N/A   Clear
10:53 AM 71.1 °F - 50.0 °F 47% 30.11 in 10.0 mi WSW 13.8 mph - N/A   Clear
11:53 AM 73.9 °F - 50.0 °F 43% 30.09 in 10.0 mi West 12.7 mph 19.6 mph N/A   Clear
12:53 PM 77.0 °F - 50.0 °F 39% 30.05 in 10.0 mi WNW 10.4 mph - N/A   Clear
1:53 PM 78.1 °F - 52.0 °F 40% 30.02 in 10.0 mi WSW 13.8 mph - N/A   Clear
2:53 PM 79.0 °F - 53.1 °F 40% 30.01 in 10.0 mi West 9.2 mph - N/A   Clear
3:53 PM 79.0 °F - 54.0 °F 42% 30.00 in 10.0 mi West 15.0 mph 18.4 mph N/A   Clear
4:53 PM 78.1 °F - 55.0 °F 45% 30.01 in 10.0 mi West 6.9 mph - N/A   Clear
5:53 PM 73.9 °F - 55.9 °F 53% 30.01 in 10.0 mi West 3.5 mph - N/A   Clear
6:53 PM 66.0 °F - 57.0 °F 73% 30.03 in 10.0 mi SSW 6.9 mph - N/A   Clear
7:53 PM 66.9 °F - 59.0 °F 76% 30.04 in 10.0 mi SW 6.9 mph - N/A   Clear
8:53 PM 64.0 °F - 60.1 °F 87% 30.05 in 10.0 mi SW 5.8 mph - N/A   Clear
9:53 PM 64.0 °F - 61.0 °F 90% 30.06 in 10.0 mi SW 8.1 mph - N/A   Clear
10:53 PM 63.0 °F - 61.0 °F 93% 30.07 in 7.0 mi SW 5.8 mph - N/A   Clear
11:53 PM 61.0 °F - 59.0 °F 93% 30.07 in 4.0 mi SW 4.6 mph - N/A   Clear